TimeEST,TemperatureF,Dew PointF,Humidity,Sea Level PressureIn,VisibilityMPH,Wind Direction,Wind SpeedMPH,Gust SpeedMPH,PrecipitationIn,Events,Conditions,WindDirDegrees,DateUTC
12:16 AM,21.9,15.4,76,30.07,10.0,Calm,Calm,-,N/A,,Clear,0,2013-03-05 05:16:00
12:35 AM,21.9,16.3,79,30.07,10.0,Calm,Calm,-,N/A,,Clear,0,2013-03-05 05:35:00
12:56 AM,21.6,16.3,80,30.07,10.0,Calm,Calm,-,N/A,,Clear,0,2013-03-05 05:56:00
1:16 AM,20.8,17.1,85,30.07,10.0,Calm,Calm,-,N/A,,Clear,0,2013-03-05 06:16:00
1:36 AM,20.7,17.2,87,30.08,10.0,Calm,Calm,-,N/A,,Clear,0,2013-03-05 06:36:00
1:56 AM,20.8,16.7,84,30.08,10.0,Calm,Calm,-,N/A,,Clear,0,2013-03-05 06:56:00
2:16 AM,20.7,16.5,84,30.07,10.0,Calm,Calm,-,N/A,,Clear,0,2013-03-05 07:16:00
2:36 AM,19.2,16.2,88,30.07,10.0,Calm,Calm,-,N/A,,Clear,0,2013-03-05 07:36:00
2:56 AM,19.4,17.8,93,30.06,10.0,NE,5.8,-,N/A,,Clear,40,2013-03-05 07:56:00
3:16 AM,19.2,16.3,89,30.06,10.0,NE,3.5,-,N/A,,Clear,50,2013-03-05 08:16:00
3:36 AM,19.6,16.7,89,30.05,10.0,Calm,Calm,-,N/A,,Clear,0,2013-03-05 08:36:00
3:56 AM,19.4,16.2,87,30.05,10.0,Calm,Calm,-,N/A,,Clear,0,2013-03-05 08:56:00
4:16 AM,18.3,15.6,89,30.05,10.0,East,3.5,-,N/A,,Clear,80,2013-03-05 09:16:00
4:36 AM,19.2,16.2,88,30.04,10.0,ENE,6.9,-,N/A,,Clear,60,2013-03-05 09:36:00
4:56 AM,19.4,15.8,86,30.04,10.0,ENE,5.8,-,N/A,,Clear,70,2013-03-05 09:56:00
5:16 AM,19.9,16.7,87,30.04,10.0,East,6.9,-,N/A,,Clear,80,2013-03-05 10:16:00
5:55 AM,19.8,16.9,89,30.04,10.0,East,3.5,-,N/A,,Clear,80,2013-03-05 10:55:00
6:16 AM,19.8,17.4,91,30.04,10.0,East,5.8,-,N/A,,Clear,90,2013-03-05 11:16:00
6:55 AM,19.2,17.8,94,30.04,10.0,East,5.8,-,N/A,,Clear,100,2013-03-05 11:55:00
7:16 AM,19.4,18.0,94,30.04,10.0,East,5.8,-,N/A,,Clear,100,2013-03-05 12:16:00
7:55 AM,21.4,19.0,91,30.02,10.0,East,8.1,-,N/A,,Clear,90,2013-03-05 12:55:00
8:16 AM,22.5,19.4,88,30.02,10.0,East,9.2,-,N/A,,Clear,90,2013-03-05 13:16:00
8:36 AM,23.9,20.1,85,30.02,10.0,East,8.1,-,N/A,,Clear,90,2013-03-05 13:36:00
8:56 AM,24.8,20.3,83,30.01,10.0,East,9.2,-,N/A,,Clear,100,2013-03-05 13:56:00
9:16 AM,25.7,20.3,80,30.00,10.0,ESE,5.8,-,N/A,,Clear,110,2013-03-05 14:16:00
9:36 AM,27.0,21.7,81,30.00,10.0,East,6.9,-,N/A,,Clear,80,2013-03-05 14:36:00
9:55 AM,28.0,21.0,75,30.01,10.0,ESE,6.9,-,N/A,,Clear,110,2013-03-05 14:55:00
10:16 AM,29.3,22.1,75,30.00,10.0,ENE,5.8,-,N/A,,Clear,70,2013-03-05 15:16:00
10:36 AM,30.0,21.7,71,29.99,10.0,East,5.8,-,N/A,,Clear,100,2013-03-05 15:36:00
10:55 AM,30.9,21.6,68,30.00,10.0,Calm,Calm,-,N/A,,Clear,0,2013-03-05 15:55:00
11:16 AM,32.2,22.8,68,29.98,10.0,ENE,5.8,-,N/A,,Clear,70,2013-03-05 16:16:00
11:35 AM,33.4,22.3,64,29.98,10.0,ESE,5.8,-,N/A,,Clear,110,2013-03-05 16:35:00
11:56 AM,34.0,21.9,61,29.96,10.0,SSE,4.6,-,N/A,,Clear,150,2013-03-05 16:56:00
12:16 PM,35.6,22.5,59,29.96,10.0,ESE,5.8,-,N/A,,Clear,110,2013-03-05 17:16:00
12:36 PM,36.1,23.2,59,29.94,10.0,ENE,9.2,-,N/A,,Clear,70,2013-03-05 17:36:00
12:55 PM,37.4,22.3,54,29.92,10.0,East,9.2,-,N/A,,Clear,90,2013-03-05 17:55:00
1:16 PM,37.4,23.4,57,29.91,10.0,ENE,6.9,-,N/A,,Clear,70,2013-03-05 18:16:00
1:36 PM,37.8,23.9,57,29.89,10.0,ENE,6.9,-,N/A,,Clear,70,2013-03-05 18:36:00
1:55 PM,39.2,24.3,55,29.88,10.0,ENE,8.1,-,N/A,,Clear,70,2013-03-05 18:55:00
2:16 PM,39.2,21.7,50,29.86,10.0,NE,8.1,-,N/A,,Clear,50,2013-03-05 19:16:00
2:36 PM,40.6,23.5,51,29.85,10.0,ENE,10.4,-,N/A,,Clear,70,2013-03-05 19:36:00
2:55 PM,40.1,22.3,49,29.84,10.0,East,9.2,-,N/A,,Clear,80,2013-03-05 19:55:00
3:16 PM,37.4,20.8,51,29.82,10.0,ENE,9.2,-,N/A,,Clear,60,2013-03-05 20:16:00
3:35 PM,39.6,19.9,45,29.82,10.0,ENE,10.4,-,N/A,,Clear,60,2013-03-05 20:35:00
3:56 PM,40.3,21.2,47,29.82,10.0,ENE,10.4,-,N/A,,Clear,60,2013-03-05 20:56:00
4:16 PM,40.5,19.4,43,29.80,10.0,East,10.4,16.1,N/A,,Clear,80,2013-03-05 21:16:00
4:36 PM,40.3,18.7,42,29.80,10.0,ENE,10.4,-,N/A,,Clear,70,2013-03-05 21:36:00
4:55 PM,39.7,22.1,49,29.79,10.0,ENE,12.7,-,N/A,,Clear,70,2013-03-05 21:55:00
5:16 PM,38.3,22.3,53,29.78,10.0,ENE,6.9,-,N/A,,Clear,70,2013-03-05 22:16:00
5:36 PM,37.0,21.7,54,29.78,10.0,ENE,8.1,-,N/A,,Clear,70,2013-03-05 22:36:00
5:55 PM,36.5,21.4,54,29.76,10.0,ENE,8.1,-,N/A,,Clear,70,2013-03-05 22:55:00
6:16 PM,36.0,21.9,57,29.76,10.0,ENE,8.1,-,N/A,,Clear,70,2013-03-05 23:16:00
6:35 PM,35.4,21.6,57,29.76,10.0,ENE,8.1,-,N/A,,Clear,70,2013-03-05 23:35:00
6:56 PM,35.2,21.9,58,29.75,10.0,ENE,12.7,-,N/A,,Clear,60,2013-03-05 23:56:00
7:16 PM,34.9,21.9,59,29.75,10.0,East,11.5,18.4,N/A,,Clear,80,2013-03-06 00:16:00
7:36 PM,34.9,21.6,58,29.73,10.0,ENE,11.5,-,N/A,,Clear,70,2013-03-06 00:36:00
7:56 PM,34.7,21.2,58,29.72,10.0,ENE,13.8,-,N/A,,Clear,70,2013-03-06 00:56:00
8:16 PM,34.7,21.4,58,29.71,10.0,ENE,15.0,24.2,N/A,,Clear,70,2013-03-06 01:16:00
8:36 PM,34.7,21.4,58,29.70,10.0,ENE,12.7,-,N/A,,Clear,70,2013-03-06 01:36:00
8:55 PM,34.2,22.1,61,29.69,10.0,ENE,12.7,18.4,N/A,,Clear,70,2013-03-06 01:55:00
9:16 PM,34.0,22.5,63,29.68,10.0,ENE,15.0,21.9,N/A,,Clear,70,2013-03-06 02:16:00
9:36 PM,33.8,22.6,64,29.67,10.0,ENE,15.0,20.7,N/A,,Clear,70,2013-03-06 02:36:00
9:55 PM,33.3,23.0,66,29.67,10.0,ENE,15.0,-,N/A,,Clear,60,2013-03-06 02:55:00
10:16 PM,33.1,23.4,67,29.67,10.0,ENE,12.7,-,N/A,,Clear,70,2013-03-06 03:16:00
10:35 PM,33.1,23.7,68,29.66,10.0,ENE,12.7,-,N/A,,Clear,70,2013-03-06 03:35:00
10:56 PM,33.1,23.9,69,29.66,10.0,ENE,13.8,19.6,N/A,,Scattered Clouds,70,2013-03-06 03:56:00
11:16 PM,33.3,24.1,69,29.66,10.0,East,13.8,-,N/A,,Scattered Clouds,80,2013-03-06 04:16:00
11:36 PM,33.3,23.9,69,29.66,10.0,ENE,12.7,-,N/A,,Scattered Clouds,70,2013-03-06 04:36:00
11:56 PM,33.8,23.7,67,29.66,10.0,East,12.7,-,N/A,,Clear,80,2013-03-06 04:56:00